.
WxDataArchive / Data Records for 2010-08-07
2010-08-06 August 2010 2010-08-08

Data Records for Saturday, 07 August 2010

Time	Temp	Chill	HIndex	Humid	Dewpt	 Wind 	HiWind	WindDir	Rain 	Barom 
-----	----	-----	------	-----	-----	------	------	-------	-----	----- 
00:00	64.3	64.3	64.3	82	58.7	0	0	---	0.00	29.958 
00:05	64.2	64.2	64.2	82	58.6	0	0	---	0.00	29.958 
00:10	64.0	64.0	64.0	82	58.4	0	0	---	0.00	29.958 
00:15	63.9	63.9	63.9	83	58.6	0	0	---	0.00	29.959 
00:20	63.7	63.7	63.7	84	58.8	0	0	---	0.00	29.959 
00:25	63.7	63.7	63.7	84	58.8	0	0	---	0.00	29.959 
00:30	63.5	63.5	63.5	84	58.6	0	0	---	0.00	29.962 
00:35	63.4	63.4	63.4	85	58.8	0	0	---	0.00	29.962 
00:40	63.2	63.2	63.2	85	58.6	0	0	---	0.00	29.962 
00:45	63.1	63.1	63.1	85	58.5	0	0	---	0.00	29.966 
00:50	63.1	63.1	63.1	86	58.8	0	0	---	0.00	29.966 
00:55	63.1	63.1	63.1	86	58.8	0	0	---	0.00	29.966 
01:00	62.9	62.9	62.9	87	59.0	0	0	---	0.00	29.967 
01:05	62.9	62.9	62.9	87	59.0	0	0	---	0.00	29.967 
01:10	62.9	62.9	62.9	88	59.3	0	0	---	0.00	29.967 
01:15	62.9	62.9	62.9	88	59.3	0	0	---	0.00	29.967 
01:20	62.7	62.7	62.7	88	59.1	0	0	---	0.00	29.967 
01:25	62.7	62.7	62.7	88	59.1	0	0	---	0.00	29.967 
01:30	62.6	62.6	62.6	88	59.0	0	0	---	0.00	29.968 
01:35	62.4	62.4	62.4	88	58.8	0	0	---	0.00	29.968 
01:40	62.4	62.4	62.4	88	58.8	0	0	---	0.00	29.968 
01:45	62.3	62.3	62.3	88	58.7	0	0	---	0.00	29.968 
01:50	62.3	62.3	62.3	88	58.7	0	0	---	0.00	29.968 
01:55	62.1	62.1	62.1	88	58.5	0	0	---	0.00	29.968 
02:00	62.1	62.1	62.1	89	58.8	0	0	---	0.00	29.967 
02:05	62.0	62.0	62.0	89	58.7	0	0	---	0.00	29.967 
02:10	62.0	62.0	62.0	89	58.7	0	0	---	0.00	29.967 
02:15	61.8	61.8	61.8	89	58.5	0	0	---	0.00	29.966 
02:20	61.8	61.8	61.8	89	58.5	0	0	---	0.00	29.966 
02:25	61.6	61.6	61.6	90	58.6	0	0	---	0.00	29.966 
02:30	61.6	61.6	61.6	90	58.6	0	0	---	0.00	29.964 
02:35	61.5	61.5	61.5	90	58.5	0	0	---	0.00	29.964 
02:40	61.3	61.3	61.3	90	58.3	0	0	---	0.00	29.964 
02:45	61.3	61.3	61.3	91	58.6	0	0	---	0.00	29.964 
02:50	61.2	61.2	61.2	91	58.5	0	0	---	0.00	29.964 
02:55	61.2	61.2	61.2	91	58.5	0	0	---	0.00	29.964 
03:00	61.2	61.2	61.2	91	58.5	0	0	---	0.00	29.969 
03:05	61.0	61.0	61.0	91	58.4	0	0	---	0.00	29.969 
03:10	61.0	61.0	61.0	92	58.7	0	0	---	0.00	29.969 
03:15	61.0	61.0	61.0	92	58.7	0	0	---	0.00	29.968 
03:20	60.9	60.9	60.9	92	58.6	0	0	---	0.00	29.968 
03:25	60.9	60.9	60.9	92	58.6	0	0	---	0.00	29.968 
03:30	60.9	60.9	60.9	92	58.6	0	0	---	0.00	29.967 
03:35	60.7	60.7	60.7	92	58.4	0	0	---	0.00	29.967 
03:40	60.7	60.7	60.7	92	58.4	0	0	---	0.00	29.967 
03:45	60.5	60.5	60.5	92	58.2	0	0	---	0.00	29.970 
03:50	60.5	60.5	60.5	92	58.2	0	0	---	0.00	29.970 
03:55	60.5	60.5	60.5	92	58.2	0	0	---	0.00	29.970 
04:00	60.4	60.4	60.4	92	58.1	0	0	---	0.00	29.965 
04:05	60.4	60.4	60.4	92	58.1	0	0	---	0.00	29.965 
04:10	60.4	60.4	60.4	92	58.1	0	0	---	0.00	29.965 
04:15	60.2	60.2	60.2	93	58.2	0	0	---	0.00	29.962 
04:20	60.2	60.2	60.2	93	58.2	0	0	---	0.00	29.962 
04:25	60.2	60.2	60.2	93	58.2	0	0	---	0.00	29.962 
04:30	60.1	60.1	60.1	93	58.1	0	0	---	0.00	29.969 
04:35	60.1	60.1	60.1	93	58.1	0	0	---	0.00	29.969 
04:40	59.9	59.9	59.9	93	57.9	0	0	---	0.00	29.969 
04:45	59.9	59.9	59.9	93	57.9	0	0	---	0.00	29.970 
04:50	59.8	59.8	59.8	93	57.8	0	0	---	0.00	29.970 
04:55	59.8	59.8	59.8	93	57.8	0	0	---	0.00	29.970 
05:00	59.8	59.8	59.8	93	57.8	0	0	---	0.00	29.970 
05:05	59.8	59.8	59.8	94	58.1	0	0	---	0.00	29.970 
05:10	59.8	59.8	59.8	94	58.1	0	0	---	0.00	29.970 
05:15	59.8	59.8	59.8	94	58.1	0	0	---	0.00	29.968 
05:20	59.8	59.8	59.8	94	58.1	0	0	---	0.00	29.968 
05:25	59.8	59.8	59.8	94	58.1	0	0	---	0.00	29.968 
05:30	59.8	59.8	59.8	94	58.1	0	0	---	0.00	29.966 
05:35	59.8	59.8	59.8	94	58.1	0	0	---	0.00	29.966 
05:40	59.6	59.6	59.6	94	57.9	0	0	---	0.00	29.966 
05:45	59.5	59.5	59.5	94	57.8	0	0	---	0.00	29.965 
05:50	59.5	59.5	59.5	94	57.8	0	0	---	0.00	29.965 
05:55	59.5	59.5	59.5	94	57.8	0	0	---	0.00	29.965 
06:00	59.3	59.3	59.3	94	57.6	0	0	---	0.00	29.971 
06:05	59.3	59.3	59.3	94	57.6	0	0	---	0.00	29.971 
06:10	59.2	59.2	59.2	95	57.8	0	0	---	0.00	29.971 
06:15	59.0	59.0	59.0	95	57.6	0	0	---	0.00	29.974 
06:20	59.0	59.0	59.0	95	57.6	0	0	---	0.00	29.974 
06:25	59.0	59.0	59.0	95	57.6	0	0	---	0.00	29.974 
06:30	58.9	58.9	58.9	95	57.5	0	0	---	0.00	29.974 
06:35	58.7	58.7	58.7	95	57.3	0	0	---	0.00	29.974 
06:40	58.7	58.7	58.7	95	57.3	0	0	---	0.00	29.974 
06:45	58.7	58.7	58.7	95	57.3	0	0	---	0.00	29.974 
06:50	58.9	58.9	58.9	95	57.5	0	0	---	0.00	29.974 
06:55	58.7	58.7	58.7	95	57.3	0	0	---	0.00	29.974 
07:00	58.7	58.7	58.7	95	57.3	0	0	---	0.00	29.976 
07:05	58.9	58.9	58.9	95	57.5	0	0	---	0.00	29.976 
07:10	58.9	58.9	58.9	95	57.5	0	0	---	0.00	29.976 
07:15	59.0	59.0	59.0	95	57.6	0	0	---	0.00	29.979 
07:20	59.0	59.0	59.0	95	57.6	0	0	---	0.00	29.979 
07:25	59.2	59.2	59.2	95	57.8	0	0	---	0.00	29.979 
07:30	59.3	59.3	59.3	95	57.9	0	0	---	0.00	29.986 
07:35	59.5	59.5	59.5	96	58.4	0	0	---	0.00	29.986 
07:40	59.6	59.6	59.6	96	58.5	0	0	---	0.00	29.986 
07:45	59.8	59.8	59.8	96	58.7	0	0	---	0.00	29.989 
07:50	60.1	60.1	60.1	96	59.0	0	0	---	0.00	29.989 
07:55	60.4	60.4	60.4	96	59.3	0	0	---	0.00	29.989 
08:00	61.0	61.0	61.0	96	59.8	0	0	---	0.00	29.986 
08:05	61.3	61.3	61.3	96	60.1	0	0	---	0.00	29.986 
08:10	61.5	61.5	61.5	96	60.3	0	0	---	0.00	29.986 
08:15	61.6	61.6	61.6	96	60.4	0	0	---	0.00	29.991 
08:20	62.1	62.1	62.1	96	60.9	0	0	---	0.00	29.991 
08:25	62.6	62.6	62.6	96	61.4	0	0	---	0.00	29.991 
08:30	63.5	63.5	63.5	96	62.3	0	0	---	0.00	29.997 
08:35	64.2	64.2	64.2	95	62.7	0	0	---	0.00	29.997 
08:40	64.5	64.5	64.5	93	62.4	0	2	315	0.00	29.997 
08:45	65.2	65.2	65.2	92	62.8	0	0	---	0.00	29.997 
08:50	66.1	66.1	66.1	89	62.8	0	1	315	0.00	29.997 
08:55	67.1	67.1	67.1	84	62.1	0	1	315	0.00	29.997 
09:00	68.1	68.1	68.1	80	61.7	0	1	315	0.00	29.997 
09:05	68.8	68.8	68.8	74	60.2	0	1	315	0.00	29.997 
09:10	69.4	69.4	69.4	72	60.0	0	2	315	0.00	29.997 
09:15	70.1	70.1	70.1	69	59.4	0	2	315	0.00	29.998 
09:20	70.9	70.9	70.9	69	60.2	0	2	315	0.00	29.998 
09:25	71.1	71.1	71.1	66	59.2	1	2	315	0.00	29.998 
09:30	71.5	71.5	71.5	70	61.2	0	1	315	0.00	29.991 
09:35	71.5	71.5	71.5	66	59.5	0	2	248	0.00	29.991 
09:40	71.5	71.5	71.5	67	60.0	0	2	248	0.00	29.991 
09:45	71.6	71.6	71.6	65	59.2	0	3	248	0.00	29.995 
09:50	72.1	72.1	72.1	64	59.2	0	3	202	0.00	29.995 
09:55	72.8	72.8	72.8	62	59.0	0	3	202	0.00	29.995 
10:00	73.5	73.5	73.5	61	59.2	0	2	135	0.00	29.993 
10:05	73.9	73.9	73.9	61	59.6	1	2	112	0.00	29.993 
10:10	74.2	74.2	74.2	60	59.4	1	6	112	0.00	29.993 
10:15	74.6	74.6	74.6	61	60.2	1	4	270	0.00	29.997 
10:20	74.6	74.6	74.6	60	59.8	0	2	270	0.00	29.997 
10:25	75.1	75.1	77.4	61	60.7	0	2	270	0.00	29.997 
10:30	75.4	75.4	77.7	58	59.6	1	3	270	0.00	29.999 
10:35	75.6	75.6	77.8	59	60.2	1	3	270	0.00	29.999 
10:40	76.0	76.0	78.0	59	60.6	1	3	112	0.00	29.999 
10:45	76.0	76.0	78.0	59	60.6	0	3	270	0.00	29.994 
10:50	76.0	76.0	78.0	58	60.1	1	4	248	0.00	29.994 
10:55	76.1	76.1	78.1	59	60.7	1	3	90	0.00	29.994 
11:00	76.3	76.3	78.3	57	59.9	1	3	112	0.00	29.998 
11:05	76.5	76.5	78.4	56	59.6	1	3	270	0.00	29.998 
11:10	76.7	76.7	78.5	59	61.3	1	3	338	0.00	29.998 
11:15	77.0	77.0	78.8	58	61.1	0	3	338	0.00	30.003 
11:20	77.0	77.0	78.8	58	61.1	0	3	248	0.00	30.003 
11:25	77.4	77.4	79.1	57	61.0	0	1	248	0.00	30.003 
11:30	77.7	77.7	79.3	57	61.2	0	2	248	0.00	29.996 
11:35	78.1	78.1	79.5	54	60.1	1	4	248	0.00	29.996 
11:40	78.1	78.1	79.5	54	60.1	1	3	112	0.00	29.996 
11:45	78.1	78.1	79.5	54	60.1	1	3	292	0.00	30.000 
11:50	78.1	78.1	79.5	54	60.1	1	2	270	0.00	30.000 
11:55	78.5	78.5	79.9	55	61.0	1	3	292	0.00	30.000 
12:00	78.5	78.5	80.0	58	62.5	1	3	292	0.00	29.998 
12:05	78.5	78.5	79.8	54	60.4	1	3	248	0.00	29.998 
12:10	78.6	78.6	80.0	56	61.6	1	3	248	0.00	29.998 
12:15	79.2	79.2	80.7	58	63.1	1	3	248	0.00	29.998 
12:20	79.2	79.2	80.3	52	60.0	1	3	270	0.00	29.998 
12:25	79.2	79.2	80.5	55	61.6	1	3	270	0.00	29.998 
12:30	79.0	79.0	80.3	54	60.9	1	4	270	0.00	29.988 
12:35	79.4	79.4	80.9	57	62.8	1	2	248	0.00	29.988 
12:40	79.9	79.9	81.1	54	61.7	1	4	112	0.00	29.988 
12:45	80.5	80.5	81.6	53	61.8	1	3	338	0.00	29.985 
12:50	80.3	80.3	81.3	52	61.0	1	3	270	0.00	29.985 
12:55	80.5	80.5	81.7	54	62.3	0	2	248	0.00	29.985 
13:00	80.9	80.9	81.9	52	61.6	1	3	270	0.00	29.983 
13:05	80.9	80.9	81.8	51	61.0	1	3	270	0.00	29.983 
13:10	80.9	80.9	81.8	51	61.0	1	4	270	0.00	29.983 
13:15	80.9	80.9	81.8	51	61.0	1	4	270	0.00	29.982 
13:20	81.2	81.2	82.1	51	61.3	1	3	248	0.00	29.982 
13:25	81.6	81.6	82.5	51	61.7	1	3	248	0.00	29.982 
13:30	81.4	81.4	82.0	49	60.4	1	3	292	0.00	29.977 
13:35	80.7	80.7	81.4	50	60.3	1	3	248	0.00	29.977 
13:40	80.9	80.9	81.9	52	61.6	1	3	270	0.00	29.977 
13:45	81.2	81.2	81.9	50	60.8	1	4	270	0.00	29.980 
13:50	81.1	81.1	82.1	52	61.8	2	5	270	0.00	29.980 
13:55	80.9	80.9	81.5	49	59.9	1	3	248	0.00	29.980 
14:00	81.1	81.1	81.5	47	58.9	1	5	270	0.00	29.974 
14:05	81.4	81.4	82.1	50	60.9	1	4	270	0.00	29.974 
14:10	81.6	81.6	82.3	50	61.1	1	4	248	0.00	29.974 
14:15	81.1	81.1	81.4	46	58.3	1	4	248	0.00	29.972 
14:20	80.3	80.3	80.9	48	58.8	1	4	270	0.00	29.972 
14:25	79.8	79.8	80.6	50	59.5	1	4	270	0.00	29.972 
14:30	79.6	79.6	80.6	52	60.4	1	2	270	0.00	29.975 
14:35	80.3	80.3	81.4	53	61.6	1	3	270	0.00	29.975 
14:40	81.2	81.2	81.7	48	59.6	2	3	292	0.00	29.975 
14:45	81.4	81.4	82.1	50	60.9	1	4	248	0.00	29.974 
14:50	81.8	81.8	82.6	50	61.3	1	6	270	0.00	29.974 
14:55	81.8	81.8	82.1	47	59.6	1	4	270	0.00	29.974 
15:00	81.6	81.6	82.3	50	61.1	1	3	292	0.00	29.971 
15:05	82.0	82.0	82.8	50	61.5	1	4	292	0.00	29.971 
15:10	82.6	82.6	83.3	49	61.5	1	4	292	0.00	29.971 
15:15	82.8	82.8	83.0	46	59.9	1	4	45	0.00	29.967 
15:20	82.8	82.8	83.0	46	59.9	1	4	225	0.00	29.967 
15:25	82.2	82.2	82.7	48	60.5	1	3	270	0.00	29.967 
15:30	82.0	82.0	82.5	48	60.3	1	3	225	0.00	29.967 
15:35	82.0	82.0	82.2	46	59.1	2	4	292	0.00	29.967 
15:40	82.2	82.2	82.4	46	59.3	1	5	270	0.00	29.967 
15:45	81.6	81.6	81.9	47	59.4	1	3	292	0.00	29.960 
15:50	81.6	81.6	82.3	50	61.1	1	3	0	0.00	29.960 
15:55	81.4	81.4	82.0	49	60.4	1	4	270	0.00	29.960 
16:00	81.4	81.4	82.1	50	60.9	1	3	270	0.00	29.961 
16:05	81.8	81.8	82.1	47	59.6	1	4	248	0.00	29.961 
16:10	81.8	81.8	82.1	47	59.6	2	4	248	0.00	29.961 
16:15	81.2	81.2	81.7	48	59.6	2	3	270	0.00	29.956 
16:20	81.2	81.2	81.8	49	60.2	1	3	270	0.00	29.956 
16:25	81.6	81.6	82.2	49	60.6	1	4	248	0.00	29.956 
16:30	81.8	81.8	82.3	48	60.2	1	4	248	0.00	29.952 
16:35	82.4	82.4	82.9	48	60.7	1	5	248	0.00	29.952 
16:40	82.6	82.6	82.5	44	58.4	1	4	292	0.00	29.952 
16:45	82.8	82.8	83.0	46	59.9	1	4	270	0.00	29.949 
16:50	82.8	82.8	82.7	44	58.6	1	3	270	0.00	29.949 
16:55	82.6	82.6	82.8	46	59.7	1	4	270	0.00	29.949 
17:00	82.4	82.4	82.7	47	60.1	1	3	270	0.00	29.944 
17:05	82.6	82.6	83.1	48	60.9	0	2	90	0.00	29.944 
17:10	82.6	82.6	83.0	47	60.3	1	3	292	0.00	29.944 
17:15	82.8	82.8	82.9	45	59.3	2	5	270	0.00	29.937 
17:20	82.6	82.6	82.8	46	59.7	1	4	270	0.00	29.937 
17:25	82.2	82.2	82.4	46	59.3	2	5	270	0.00	29.937 
17:30	82.0	82.0	82.3	47	59.8	1	4	270	0.00	29.936 
17:35	82.0	82.0	82.2	46	59.1	1	5	248	0.00	29.936 
17:40	81.4	81.4	81.8	47	59.2	1	2	270	0.00	29.936 
17:45	80.7	80.7	81.4	50	60.3	1	3	270	0.00	29.938 
17:50	80.7	80.7	81.4	50	60.3	0	2	270	0.00	29.938 
17:55	81.2	81.2	81.8	49	60.2	1	3	270	0.00	29.938 
18:00	81.4	81.4	81.9	48	59.8	1	3	270	0.00	29.931 
18:05	81.1	81.1	81.7	49	60.1	1	3	248	0.00	29.931 
18:10	80.5	80.5	81.3	50	60.1	0	2	248	0.00	29.931 
18:15	80.1	80.1	81.1	52	60.9	0	1	248	0.00	29.925 
18:20	79.9	79.9	80.8	51	60.1	1	3	248	0.00	29.925 
18:25	80.1	80.1	81.0	51	60.3	1	3	248	0.00	29.925 
18:30	80.3	80.3	81.2	51	60.5	1	4	248	0.00	29.925 
18:35	80.1	80.1	81.0	51	60.3	1	4	270	0.00	29.925 
18:40	79.6	79.6	80.6	52	60.4	0	2	270	0.00	29.925 
18:45	79.4	79.4	80.5	53	60.8	0	2	270	0.00	29.925 
18:50	79.2	79.2	80.3	52	60.0	0	2	270	0.00	29.925 
18:55	79.4	79.4	80.5	52	60.2	1	3	270	0.00	29.925 
19:00	79.6	79.6	80.6	52	60.4	0	3	270	0.00	29.923 
19:05	79.6	79.6	80.6	52	60.4	0	3	270	0.00	29.923 
19:10	79.6	79.6	80.6	52	60.4	1	3	270	0.00	29.923 
19:15	79.6	79.6	80.7	53	60.9	0	3	270	0.00	29.921 
19:20	79.2	79.2	80.4	54	61.1	0	1	270	0.00	29.921 
19:25	79.0	79.0	80.3	55	61.4	0	1	270	0.00	29.921 
19:30	78.8	78.8	80.1	54	60.7	1	3	270	0.00	29.921 
19:35	78.8	78.8	80.1	54	60.7	0	3	270	0.00	29.921 
19:40	78.8	78.8	80.0	53	60.2	0	2	270	0.00	29.921 
19:45	78.8	78.8	80.0	53	60.2	0	2	270	0.00	29.924 
19:50	78.6	78.6	79.9	54	60.5	0	1	270	0.00	29.924 
19:55	78.6	78.6	79.9	54	60.5	0	1	270	0.00	29.924 
20:00	78.5	78.5	79.9	55	61.0	0	2	270	0.00	29.924 
20:05	78.3	78.3	79.8	56	61.3	0	1	270	0.00	29.924 
20:10	78.1	78.1	79.6	56	61.1	0	0	---	0.00	29.924 
20:15	77.9	77.9	79.4	56	60.9	0	0	---	0.00	29.922 
20:20	77.7	77.7	79.3	56	60.7	0	1	270	0.00	29.922 
20:25	77.7	77.7	79.3	56	60.7	0	1	270	0.00	29.922 
20:30	77.4	77.4	79.1	57	61.0	0	0	---	0.00	29.923 
20:35	77.2	77.2	78.9	57	60.8	0	0	---	0.00	29.923 
20:40	77.0	77.0	78.8	58	61.1	0	1	270	0.00	29.923 
20:45	76.7	76.7	78.5	58	60.8	0	0	---	0.00	29.922 
20:50	76.3	76.3	78.2	59	60.9	0	0	---	0.00	29.922 
20:55	76.0	76.0	78.0	60	61.1	0	0	---	0.00	29.922 
21:00	75.4	75.4	77.6	61	61.0	0	0	---	0.00	29.925 
21:05	75.1	75.1	77.4	61	60.7	0	0	---	0.00	29.925 
21:10	74.7	74.7	74.7	62	60.8	0	0	---	0.00	29.925 
21:15	74.4	74.4	74.4	63	61.0	0	0	---	0.00	29.927 
21:20	74.0	74.0	74.0	64	61.0	0	0	---	0.00	29.927 
21:25	73.7	73.7	73.7	66	61.6	0	0	---	0.00	29.927 
21:30	73.3	73.3	73.3	67	61.7	0	0	---	0.00	29.930 
21:35	73.0	73.0	73.0	68	61.8	0	0	---	0.00	29.930 
21:40	72.7	72.7	72.7	69	61.9	0	0	---	0.00	29.930 
21:45	72.3	72.3	72.3	69	61.5	0	0	---	0.00	29.933 
21:50	72.0	72.0	72.0	70	61.7	0	0	---	0.00	29.933 
21:55	71.6	71.6	71.6	71	61.7	0	0	---	0.00	29.933 
22:00	71.3	71.3	71.3	72	61.8	0	0	---	0.00	29.939 
22:05	71.1	71.1	71.1	73	62.0	0	0	---	0.00	29.939 
22:10	70.8	70.8	70.8	75	62.5	0	0	---	0.00	29.939 
22:15	70.4	70.4	70.4	76	62.5	0	0	---	0.00	29.945 
22:20	70.3	70.3	70.3	77	62.7	0	0	---	0.00	29.945 
22:25	70.1	70.1	70.1	78	62.9	0	0	---	0.00	29.945 
22:30	69.8	69.8	69.8	78	62.6	0	0	---	0.00	29.946 
22:35	69.6	69.6	69.6	79	62.8	0	0	---	0.00	29.946 
22:40	69.6	69.6	69.6	79	62.8	0	0	---	0.00	29.946 
22:45	69.6	69.6	69.6	80	63.1	0	0	---	0.00	29.941 
22:50	69.6	69.6	69.6	80	63.1	0	0	---	0.00	29.941 
22:55	69.4	69.4	69.4	80	63.0	0	0	---	0.00	29.941 
23:00	69.3	69.3	69.3	81	63.2	0	0	---	0.00	29.946 
23:05	69.3	69.3	69.3	81	63.2	0	0	---	0.00	29.946 
23:10	69.1	69.1	69.1	82	63.4	0	0	---	0.00	29.946 
23:15	68.9	68.9	68.9	82	63.2	0	0	---	0.00	29.944 
23:20	68.8	68.8	68.8	83	63.4	0	0	---	0.00	29.944 
23:25	68.6	68.6	68.6	83	63.2	0	0	---	0.00	29.944 
23:30	68.4	68.4	68.4	84	63.4	0	0	---	0.00	29.946 
23:35	68.3	68.3	68.3	84	63.3	0	0	---	0.00	29.946 
23:40	68.1	68.1	68.1	84	63.1	0	0	---	0.00	29.946 
23:45	68.1	68.1	68.1	85	63.4	0	0	---	0.00	29.945 
23:50	67.9	67.9	67.9	85	63.2	0	0	---	0.00	29.945 
23:55	67.8	67.8	67.8	85	63.1	0	0	---	0.00	29.945 

CoCoRaHS
IN-AL-39
A2 Web Hosting
Creative Commons License
GoDaddy
search engine by freefind advanced

loaded 2018-11-16 10:38:31 • last modified 2010-11-18 10:43:29
Privacy PolicyDisclaimer
• wx.awcolley.com is powered by PmWiki v.2002016 •
• all content (unless otherwise noted) © 2018 A W Colley